DW7787 Weather Reports


Display with metric or nautical units.
time (UTC)temp
F
wind
direction
speed
MPH
gust
MPH
rain 1hr
in
rain 24hr
in
rain mn
in
humidity
%
barometer
mb
20260507095204 64 271 0.0 3.0 0.01 1.46 0.51 96 1010.9
20260507094709 64 315 0.0 2.0 0.01 1.46 0.51 96 1010.7
20260507094205 64 307 0.0 1.0 0.01 1.46 0.51 96 1010.4
20260507093702 64 307 0.0 1.0 0.01 1.46 0.51 96 1010.7
20260507093201 64 307 0.0 1.0 0.01 1.46 0.51 96 1010.9
20260507092702 64 307 0.0 1.0 0.01 1.46 0.51 96 1010.7
20260507092201 64 307 0.0 1.0 0.01 1.46 0.51 96 1010.8
20260507091703 64 307 0.0 1.0 0.01 1.46 0.51 96 1010.9
20260507091203 64 307 0.0 1.0 0.01 1.46 0.51 96 1010.8
20260507090701 64 241 0.0 2.0 0.02 1.46 0.51 96 1011.2
20260507090202 64 242 1.0 2.0 0.02 1.46 0.51 96 1011.0
20260507090036 64 155 1.0 3.0 0.01 1.44 0.50 96 1010.7
20260507085156 64 144 1.0 3.0 0.01 1.44 0.50 96 1010.7
20260507084653 64 109 1.0 3.0 0.01 1.44 0.50 96 1010.7
20260507084148 64 109 1.0 3.0 0.02 1.44 0.50 96 1010.8
20260507083645 64 113 1.0 2.0 0.03 1.44 0.50 96 1010.8
20260507083512 64 113 1.0 2.0 0.04 1.44 0.50 96 1010.9
20260507082646 64 113 1.0 2.0 0.04 1.44 0.50 96 1010.7
20260507082143 63 113 0.0 2.0 0.06 1.44 0.50 96 1010.6
20260507081641 63 113 0.0 1.0 0.07 1.44 0.50 96 1010.6
20260507081140 64 113 0.0 1.0 0.09 1.44 0.50 96 1010.6
20260507080640 63 113 0.0 1.0 0.10 1.44 0.49 96 1010.9
20260507080138 63 113 0.0 1.0 0.11 1.44 0.49 96 1010.8
20260507075637 63 113 0.0 1.0 0.13 1.32 0.49 96 1011.0
20260507075136 63 113 0.0 1.0 0.14 1.32 0.49 95 1011.1
20260507074637 63 113 0.0 1.0 0.14 1.32 0.49 95 1011.0
20260507074441 63 113 0.0 1.0 0.13 1.32 0.48 95 1011.0
20260507073637 63 113 0.0 0.0 0.12 1.32 0.47 95 1011.1
20260507073135 63 113 0.0 0.0 0.12 1.32 0.46 95 1010.9
20260507072632 63 113 0.0 1.0 0.11 1.32 0.45 95 1011.0
20260507072451 63 113 0.0 1.0 0.10 1.32 0.44 95 1011.1
20260507071630 63 113 1.0 3.0 0.10 1.32 0.43 95 1011.4
20260507071136 63 113 1.0 3.0 0.08 1.32 0.41 95 1011.1
20260507070633 63 166 1.0 3.0 0.07 1.32 0.39 95 1012.0
20260507070315 64 208 1.0 2.0 0.06 1.26 0.36 95 1012.1
20260507070231 63 235 1.0 2.0 0.07 1.32 0.37 95 1011.9
20260507065117 64 236 1.0 3.0 0.07 1.26 0.35 95 1012.5
20260507064610 63 236 0.0 3.0 0.12 1.26 0.35 95 1012.6
20260507064425 63 196 0.0 1.0 0.13 1.26 0.35 95 1011.9
20260507063612 64 196 0.0 2.0 0.15 1.26 0.34 95 1012.5
20260507063110 64 196 0.0 2.0 0.16 1.26 0.34 95 1012.9
20260507062608 64 196 0.0 1.0 0.17 1.26 0.34 95 1013.0
20260507062107 64 189 0.0 1.0 0.22 1.26 0.34 95 1012.8
20260507061607 64 189 0.0 1.0 0.28 1.26 0.33 95 1012.8
20260507061108 64 189 0.0 1.0 0.32 1.26 0.33 95 1012.6
20260507060603 64 189 0.0 2.0 0.32 1.26 0.32 95 1012.7
20260507055603 64 232 1.0 4.0 0.29 0.95 0.29 95 1012.7
20260507055103 64 258 1.0 4.0 0.28 0.95 0.27 95 1013.4
20260507054601 64 255 1.0 4.0 0.23 0.95 0.23 95 1013.9
20260507054101 64 290 1.0 4.0 0.22 0.95 0.21 95 1014.0
20260507053601 64 266 1.0 4.0 0.20 0.95 0.19 95 1013.6
20260507053101 64 252 0.0 2.0 0.18 1.13 0.18 95 1013.2
20260507052914 64 271 0.0 3.0 0.16 1.11 0.16 95 1013.5
20260507052509 64 347 1.0 6.0 0.01 0.96 0.00 95 1013.2
20260507052500 64 267 1.0 3.0 0.12 1.07 0.08 95 1013.8
20260507051705 64 294 1.0 6.0 0.05 1.00 0.05 95 1013.6
20260507050604 64 161 0.0 1.0 0.00 0.95 0.00 95 1013.1
20260507045911 64 161 0.0 1.0 0.00 0.95 0.00 95 1012.5
20260507045104 64 161 0.0 1.0 0.00 0.95 0.00 95 1012.5
20260507044604 64 161 1.0 3.0 0.00 0.95 0.00 95 1012.8
20260507044432 64 161 1.0 3.0 0.00 0.95 0.00 95 1012.5
20260507043601 64 175 0.0 2.0 0.00 0.95 0.00 95 1012.5
20260507043101 64 180 0.0 2.0 0.01 0.95 0.00 95 1013.0
20260507042922 64 17 0.0 2.0 0.02 0.95 0.00 95 1013.1
20260507042103 64 210 0.0 2.0 0.03 0.95 0.00 94 1013.5
20260507041602 64 213 0.0 2.0 0.05 0.95 0.00 94 1013.5
20260507041431 64 207 0.0 2.0 0.08 0.95 0.00 94 1013.7
20260507040922 64 237 0.0 2.0 0.11 0.95 0.00 94 1013.6
20260507040106 64 253 1.0 4.0 0.12 0.95 0.00 94 1013.7
20260507035604 64 168 2.0 8.0 0.12 0.95 0.95 94 1013.6
20260507035101 64 182 2.0 8.0 0.16 0.95 0.95 94 1013.8
20260507034604 64 292 1.0 4.0 0.20 0.95 0.95 94 1013.8
20260507034102 64 295 2.0 5.0 0.24 0.95 0.95 94 1013.4
20260507033601 64 228 4.0 8.0 0.28 0.95 0.94 94 1012.7
20260507033100 64 144 3.0 8.0 0.29 0.94 0.94 94 1010.0
20260507032606 64 94 1.0 4.0 0.28 0.93 0.93 93 1013.1
20260507032101 64 177 1.0 5.0 0.27 0.92 0.92 93 1014.2
20260507031601 64 209 1.0 5.0 0.26 0.90 0.90 93 1015.4
20260507031101 64 233 0.0 3.0 0.24 0.87 0.86 93 1015.2
20260507030915 64 217 0.0 2.0 0.22 0.84 0.84 93 1014.7
20260507030427 65 217 0.0 2.0 0.21 0.83 0.83 93 1014.7
20260507025604 65 217 0.0 3.0 0.22 0.83 0.82 92 1014.5
20260507025103 65 211 0.0 3.0 0.20 0.79 0.79 92 1014.8
20260507024601 65 263 0.0 2.0 0.18 0.75 0.75 92 1014.8
20260507024110 65 220 0.0 2.0 0.16 0.71 0.70 92 1014.9
20260507023608 65 218 0.0 1.0 0.14 0.67 0.66 92 1014.7
20260507023102 65 218 0.0 1.0 0.15 0.65 0.65 92 1014.6
20260507022554 65 248 0.0 2.0 0.18 0.65 0.65 92 1014.4
20260507022050 65 257 0.0 2.0 0.20 0.65 0.65 92 1014.2
20260507021550 65 259 0.0 1.0 0.20 0.64 0.64 91 1014.3
20260507021054 65 276 0.0 2.0 0.19 0.63 0.63 91 1014.2
20260507020548 65 276 0.0 2.0 0.18 0.62 0.62 91 1014.2
20260507020047 66 5 1.0 7.0 0.19 0.62 0.62 91 1014.7
20260507015546 66 213 1.0 7.0 0.21 0.61 0.61 91 1015.0
20260507015045 66 254 1.0 8.0 0.22 0.59 0.59 91 1014.5
20260507014545 66 231 1.0 8.0 0.23 0.57 0.57 90 1014.4
20260507014344 66 271 2.0 8.0 0.22 0.55 0.54 90 1014.2
20260507013544 67 245 3.0 8.0 0.19 0.52 0.52 90 1014.2
20260507013043 67 254 2.0 8.0 0.18 0.50 0.49 89 1014.3
20260507012544 67 252 1.0 6.0 0.15 0.47 0.47 88 1013.9
20260507012044 68 251 1.0 6.0 0.14 0.45 0.45 88 1013.7
20260507011545 68 261 1.0 3.0 0.13 0.44 0.44 87 1013.3
20260507011050 68 235 0.0 7.0 0.13 0.44 0.44 87 1013.3
20260507010907 69 338 1.0 7.0 0.13 0.44 0.44 87 1013.4
20260507010041 69 238 3.0 10.0 0.12 0.43 0.42 86 1013.5
20260507005908 69 227 4.0 10.0 0.09 0.40 0.39 86 1013.4
20260507005038 70 290 3.0 10.0 0.07 0.37 0.36 86 1013.9
20260507004536 71 242 2.0 10.0 0.04 0.34 0.34 85 1013.9
20260507004037 71 252 1.0 5.0 0.03 0.33 0.33 84 1013.5
20260507003841 72 184 1.0 3.0 0.03 0.33 0.33 84 1013.5
20260507003037 72 304 1.0 3.0 0.02 0.32 0.32 83 1013.3
20260507002537 72 273 0.0 2.0 0.02 0.32 0.31 81 1013.1
20260507002345 73 263 0.0 1.0 0.01 0.31 0.31 80 1013.3
20260507001908 73 255 0.0 1.0 0.01 0.31 0.31 79 1013.5
20260507001035 73 255 0.0 1.0 0.01 0.31 0.31 78 1013.3
20260507000535 74 255 0.0 1.0 0.01 0.31 0.31 78 1013.1
20260507000031 74 254 0.0 2.0 0.01 0.31 0.31 77 1013.1
20260506235853 74 254 0.0 2.0 0.01 0.31 0.31 77 1013.2
20260506235033 74 244 0.0 2.0 0.00 0.30 0.30 76 1012.9
20260506234531 74 247 0.0 1.0 0.00 0.30 0.30 74 1012.6
20260506234030 74 247 0.0 0.0 0.00 0.30 0.30 74 1012.9
20260506233530 75 247 0.0 0.0 0.00 0.30 0.30 73 1012.8
20260506233031 75 247 0.0 1.0 0.00 0.30 0.30 73 1012.9
20260506232835 75 247 0.0 1.0 0.00 0.30 0.30 73 1012.9
20260506232034 75 247 0.0 2.0 0.00 0.30 0.30 73 1012.9
20260506231717 75 185 0.0 2.0 0.00 0.30 0.30 72 1012.9
20260506231637 75 247 0.0 2.0 0.00 0.30 0.30 72 1013.0
20260506230529 76 115 0.0 2.0 0.00 0.30 0.30 72 1012.9
20260506230029 76 282 0.0 1.0 0.00 0.30 0.30 72 1012.8
20260506225528 76 282 0.0 1.0 0.00 0.30 0.30 71 1012.7
20260506225338 76 281 0.0 2.0 0.00 0.30 0.30 71 1012.7
20260506224531 76 28 0.0 2.0 0.00 0.30 0.30 71 1012.7
20260506224029 76 225 1.0 3.0 0.00 0.30 0.30 72 1012.7
20260506223529 76 250 1.0 4.0 0.00 0.30 0.30 71 1012.8
20260506223208 76 145 1.0 4.0 0.00 0.30 0.30 71 1012.8
20260506223136 76 213 1.0 4.0 0.00 0.30 0.30 70 1012.9
20260506222300 76 227 1.0 4.0 0.00 0.30 0.30 71 1012.7
20260506221515 76 173 1.0 3.0 0.00 0.30 0.30 70 1012.8
20260506221008 76 211 2.0 7.0 0.00 0.30 0.30 70 1012.7
20260506220521 76 308 1.0 5.0 0.00 0.30 0.30 71 1012.7
20260506220508 76 225 2.0 7.0 0.00 0.30 0.30 70 1012.7
20260506215509 76 215 1.0 5.0 0.00 0.30 0.30 72 1012.7
20260506215006 76 227 1.0 5.0 0.00 0.30 0.30 71 1012.7
20260506214507 76 232 2.0 5.0 0.00 0.30 0.30 71 1012.7
20260506214007 76 159 2.0 5.0 0.00 0.30 0.30 73 1012.9
20260506213507 76 77 2.0 7.0 0.00 0.30 0.30 72 1013.1
20260506213004 76 286 1.0 7.0 0.00 0.30 0.30 73 1013.0
20260506212506 76 162 1.0 4.0 0.00 0.30 0.30 73 1012.8
20260506212157 74 163 1.0 6.0 0.00 0.30 0.30 77 1012.8
20260506212113 75 263 1.0 4.0 0.00 0.30 0.30 75 1012.9
20260506211259 74 318 0.0 6.0 0.00 0.30 0.30 77 1012.9
20260506210825 74 204 1.0 4.0 0.00 0.30 0.30 77 1012.9
20260506210004 74 215 1.0 4.0 0.00 0.30 0.30 76 1012.9
20260506205502 74 88 1.0 3.0 0.00 0.30 0.30 77 1012.9
20260506205002 74 134 1.0 3.0 0.00 0.30 0.30 78 1013.0
20260506204500 73 216 1.0 3.0 0.00 0.30 0.30 77 1013.1
20260506203954 73 209 1.0 2.0 0.00 0.30 0.30 78 1013.2
20260506203449 73 324 1.0 4.0 0.00 0.30 0.30 78 1013.2
20260506202945 73 350 1.0 4.0 0.00 0.30 0.30 78 1013.2
20260506202446 72 221 1.0 6.0 0.00 0.30 0.30 80 1013.3
20260506201945 72 40 1.0 6.0 0.00 0.30 0.30 80 1013.6
20260506201441 72 219 1.0 3.0 0.00 0.30 0.30 78 1013.6
20260506201428 72 264 1.0 5.0 0.00 0.30 0.30 79 1013.6
20260506201420 72 200 1.0 5.0 0.00 0.30 0.30 80 1013.6
20260506195942 72 46 2.0 4.0 0.00 0.30 0.30 79 1013.8
20260506195734 72 248 1.0 4.0 0.00 0.30 0.30 79 1013.7
20260506194941 72 145 1.0 4.0 0.00 0.30 0.30 81 1013.7
20260506194437 71 212 1.0 4.0 0.00 0.30 0.30 83 1013.7
20260506194245 71 127 1.0 3.0 0.00 0.30 0.30 83 1013.6
20260506193435 70 139 1.0 4.0 0.00 0.30 0.30 85 1013.6
20260506192937 69 195 2.0 5.0 0.00 0.30 0.30 84 1013.6
20260506192433 69 221 2.0 5.0 0.00 0.30 0.30 86 1013.6
20260506191931 68 192 1.0 4.0 0.00 0.30 0.30 86 1013.6
20260506191432 68 192 1.0 3.0 0.00 0.30 0.30 87 1013.8
20260506190934 68 163 1.0 5.0 0.00 0.30 0.30 86 1013.8
20260506190432 68 225 2.0 5.0 0.00 0.30 0.30 88 1013.8
20260506185933 68 129 1.0 6.0 0.01 0.30 0.30 89 1013.7
20260506185433 67 226 1.0 6.0 0.01 0.30 0.30 91 1013.5
20260506184930 67 140 1.0 5.0 0.02 0.30 0.30 93 1013.6
20260506184430 66 124 1.0 5.0 0.02 0.30 0.30 93 1013.5
20260506183930 65 92 1.0 3.0 0.02 0.30 0.30 92 1013.6
20260506183429 65 78 1.0 3.0 0.03 0.30 0.30 92 1013.5
20260506182929 65 205 1.0 3.0 0.03 0.30 0.30 92 1013.6
20260506182739 65 199 1.0 3.0 0.05 0.30 0.30 92 1013.4
20260506181929 65 135 1.0 3.0 0.07 0.30 0.30 92 1013.3
20260506181428 65 128 2.0 3.0 0.11 0.30 0.30 92 1013.5
20260506180930 65 119 1.0 3.0 0.16 0.30 0.30 91 1013.6
20260506180429 64 123 1.0 3.0 0.23 0.30 0.30 91 1014.0
20260506175931 65 128 1.0 3.0 0.27 0.29 0.29 90 1014.7
20260506175429 65 146 1.0 3.0 0.27 0.29 0.29 89 1015.4
20260506174929 65 205 1.0 3.0 0.27 0.28 0.28 89 1016.2
20260506174429 65 203 1.0 3.0 0.28 0.28 0.28 88 1016.0
20260506173930 65 232 1.0 3.0 0.28 0.28 0.28 88 1015.9
20260506173433 65 215 1.0 3.0 0.27 0.27 0.27 86 1015.9
20260506173028 66 211 2.0 7.0 0.25 0.25 0.25 83 1016.1
20260506173013 65 110 2.0 6.0 0.26 0.26 0.26 85 1015.8
20260506171919 67 44 2.0 10.0 0.22 0.22 0.22 80 1016.3
20260506171412 68 49 2.0 10.0 0.18 0.18 0.17 77 1017.1
20260506170909 69 200 2.0 10.0 0.14 0.14 0.13 75 1016.9
20260506170410 70 282 2.0 10.0 0.07 0.07 0.06 70 1016.3
20260506165909 71 194 2.0 10.0 0.02 0.02 0.02 66 1016.5
20260506165410 73 200 2.0 7.0 0.02 0.02 0.02 64 1016.2
20260506165216 73 270 2.0 6.0 0.01 0.01 0.01 60 1015.7
20260506164411 74 269 3.0 11.0 0.00 0.00 0.00 55 1015.7
20260506163912 74 355 3.0 11.0 0.00 0.00 0.00 53 1015.5
20260506163409 75 255 2.0 7.0 0.00 0.00 0.00 52 1015.1
20260506162910 75 205 2.0 7.0 0.00 0.00 0.00 51 1015.0
20260506162716 75 51 2.0 7.0 0.00 0.00 0.00 52 1015.0
20260506161910 75 209 1.0 6.0 0.00 0.00 0.00 53 1015.1
20260506161410 75 257 2.0 5.0 0.00 0.00 0.00 56 1015.1
20260506160909 75 121 3.0 7.0 0.00 0.00 0.00 56 1015.1
20260506160410 75 240 2.0 7.0 0.00 0.00 0.00 55 1015.1
20260506155909 75 281 2.0 9.0 0.00 0.00 0.00 57 1015.1
20260506155410 74 44 2.0 9.0 0.00 0.00 0.00 58 1015.0
20260506154911 74 146 2.0 8.0 0.00 0.00 0.00 57 1015.0
20260506154408 74 200 3.0 8.0 0.00 0.00 0.00 59 1014.9
20260506153910 73 276 3.0 8.0 0.00 0.00 0.00 60 1014.9
20260506153410 73 217 2.0 8.0 0.00 0.00 0.00 61 1014.8
20260506152906 72 239 2.0 6.0 0.00 0.00 0.00 64 1014.8
20260506152406 72 71 2.0 8.0 0.00 0.00 0.00 65 1014.6
20260506152210 71 202 2.0 8.0 0.00 0.00 0.00 66 1014.6
20260506151407 71 277 1.0 4.0 0.00 0.00 0.00 68 1014.7
20260506150909 71 207 1.0 3.0 0.00 0.00 0.00 70 1014.8
20260506150408 70 86 2.0 5.0 0.00 0.00 0.00 70 1014.7
20260506145907 69 139 2.0 5.0 0.00 0.00 0.00 71 1014.9
20260506145407 69 219 1.0 4.0 0.00 0.00 0.00 71 1015.0
20260506144908 69 225 1.0 3.0 0.00 0.00 0.00 71 1014.8
20260506144403 68 152 1.0 3.0 0.00 0.00 0.00 72 1015.0
20260506144209 68 108 1.0 3.0 0.00 0.00 0.00 71 1015.1
20260506143404 68 44 1.0 3.0 0.00 0.00 0.00 72 1015.3
20260506142904 68 255 1.0 3.0 0.00 0.00 0.00 72 1015.2
20260506142403 68 182 2.0 4.0 0.00 0.00 0.00 72 1015.1
20260506141905 67 51 2.0 5.0 0.00 0.00 0.00 72 1015.0
20260506141406 67 203 2.0 6.0 0.00 0.00 0.00 72 1014.8
20260506141212 67 214 2.0 6.0 0.00 0.00 0.00 72 1014.9
20260506140714 67 227 1.0 5.0 0.00 0.00 0.00 72 1015.0
20260506135902 67 196 1.0 5.0 0.00 0.00 0.00 72 1014.9
20260506135402 67 212 2.0 4.0 0.00 0.00 0.00 73 1014.7
20260506134902 67 254 2.0 5.0 0.00 0.00 0.00 73 1014.6
20260506134401 67 229 1.0 5.0 0.00 0.00 0.00 74 1014.6
20260506133902 66 182 1.0 3.0 0.00 0.00 0.00 74 1014.7
20260506133402 66 201 1.0 4.0 0.00 0.00 0.00 74 1014.7
20260506132902 65 109 1.0 4.0 0.00 0.00 0.00 75 1014.5
20260506132401 65 31 1.0 4.0 0.00 0.00 0.00 75 1014.5
20260506131901 65 210 1.0 3.0 0.00 0.00 0.00 75 1014.6
20260506131402 65 225 1.0 8.0 0.00 0.00 0.00 76 1014.6
20260506130900 64 349 1.0 8.0 0.00 0.00 0.00 75 1014.7
20260506130711 64 39 2.0 4.0 0.00 0.00 0.00 76 1014.3
20260506125902 64 89 2.0 6.0 0.00 0.00 0.00 76 1013.9
20260506125402 64 173 1.0 6.0 0.00 0.00 0.00 76 1014.4
20260506124901 64 249 1.0 3.0 0.00 0.00 0.00 76 1014.9
20260506124403 64 175 1.0 3.0 0.00 0.00 0.00 76 1014.9
20260506124213 63 190 1.0 3.0 0.00 0.00 0.00 77 1015.2
20260506123705 63 107 1.0 3.0 0.00 0.00 0.00 77 1015.1
20260506122901 63 123 1.0 3.0 0.00 0.00 0.00 77 1015.1
20260506122402 63 209 1.0 2.0 0.00 0.00 0.00 77 1015.2
20260506121901 63 325 0.0 3.0 0.00 0.00 0.00 77 1015.3
20260506121722 63 5 1.0 3.0 0.00 0.00 0.00 76 1015.6
20260506120903 63 44 1.0 2.0 0.00 0.00 0.00 76 1015.8
20260506120358 63 207 1.0 3.0 0.00 0.00 0.00 76 1015.6
20260506115859 63 146 1.0 3.0 0.00 0.00 0.00 76 1015.6
20260506115345 63 205 1.0 3.0 0.00 0.00 0.00 76 1015.4
20260506114844 63 202 1.0 3.0 0.00 0.00 0.00 76 1015.2
20260506114336 62 181 1.0 5.0 0.00 0.00 0.00 76 1015.2
20260506113833 62 89 1.0 5.0 0.00 0.00 0.00 76 1015.1
20260506113330 62 283 1.0 4.0 0.00 0.00 0.00 75 1014.9
20260506112832 62 13 1.0 4.0 0.00 0.00 0.00 75 1014.7
20260506112331 62 195 1.0 4.0 0.00 0.00 0.00 75 1014.8
20260506111830 62 202 2.0 4.0 0.00 0.00 0.00 75 1014.7
20260506111629 62 215 2.0 4.0 0.00 0.00 0.00 75 1014.7
20260506110832 62 194 1.0 3.0 0.00 0.00 0.00 75 1014.6
20260506110332 62 177 1.0 4.0 0.00 0.00 0.00 75 1014.5
20260506105831 62 195 1.0 4.0 0.00 0.00 0.00 75 1014.3
20260506105329 62 46 1.0 4.0 0.00 0.00 0.00 75 1014.0
20260506105140 62 30 1.0 4.0 0.00 0.00 0.00 75 1014.0
20260506104329 62 220 1.0 5.0 0.00 0.00 0.00 75 1014.0
20260506103829 62 165 2.0 6.0 0.00 0.00 0.00 75 1014.0
20260506103329 62 221 1.0 6.0 0.00 0.00 0.00 75 1013.9
20260506102829 62 93 1.0 4.0 0.00 0.00 0.00 75 1013.7
20260506102631 62 159 1.0 4.0 0.00 0.00 0.00 75 1013.7
20260506101824 62 341 1.0 4.0 0.00 0.00 0.00 75 1013.6
20260506101318 62 200 1.0 4.0 0.00 0.00 0.00 75 1013.8
20260506100812 62 83 1.0 4.0 0.00 0.00 0.00 76 1014.0
20260506100311 62 71 1.0 4.0 0.00 0.00 0.00 76 1013.9
20260506095810 62 23 1.0 3.0 0.00 0.00 0.00 76 1013.8